Manistique, MI

6:27 PM EDT on August 28, 2016 (GMT -0400)
Schoolcraft County

Weather History for KISQ - July, 2013

Change the Weather History Date:

Thursday, July 4, 2013

  Actual Average Record
Temperature  
Mean Temperature 60 °F -  
Max Temperature 66 °F 70 °F 96 °F (1955)
Min Temperature 53 °F 51 °F 33 °F (2002)
Degree Days  
Heating Degree Days 6    
Growing Degree Days 10 (Base 50)    
Moisture  
Dew Point 58 °F    
Average Humidity 90    
Maximum Humidity 97    
Minimum Humidity 84    
Precipitation  
Precipitation 0.00 in - - ()
Sea Level Pressure  
Sea Level Pressure 30.03 in    
Wind  
Wind Speed 4 mph (SSW)    
Max Wind Speed 14 mph    
Max Gust Speed 23 mph    
Visibility 8 miles    
Events      
Averages and records for this station are not official NWS values.
T = Trace of Precipitation, MM = Missing Value Source: NWS Daily Summary

Daily Weather History Graph

Daily Weather History Graph

Search for Another Location

Airport or City:

Trip Planner

Search our weather history database for the weather conditions in past years. The results will help you decide how hot, cold, wet, or windy it might be!

Date:

Astronomy

Jul. 04, 2013 Rise Set
Actual Time 5:59 AM EDT 9:38 PM EDT
Civil Twilight 5:21 AM EDT 10:16 PM EDT
Nautical Twilight 4:31 AM EDT 11:06 PM EDT
Astronomical Twilight 3:22 AM EDT 12:14 AM EDT
Moon 3:21 AM EDT (7/4) 6:38 PM EDT (7/4)
Length of Visible Light 16h 54m
Length of Day
15h 38m
Waning Crescent, 11% of the Moon is Illuminated
Jul 4
Waning Crescent
Jul 8
New
Jul 15
First Quarter
Jul 22
Full
Jul 29
Last Quarter

Hourly Weather History & Observations

Time (EDT) Temp. Dew Point Humidity Pressure Visibility Wind Dir Wind Speed Gust Speed Precip Events Conditions
12:15 AM 56.1 °F 53.6 °F 91% 30.03 in 10.0 mi Calm Calm - N/A   Clear
12:35 AM 55.8 °F 53.1 °F 91% 30.03 in 10.0 mi Calm Calm - N/A   Clear
12:55 AM 54.7 °F 52.7 °F 93% 30.03 in 10.0 mi Calm Calm - N/A   Clear
1:15 AM 55.0 °F 52.2 °F 90% 30.03 in 10.0 mi Calm Calm - N/A   Clear
1:34 AM 53.4 °F 51.4 °F 93% 30.03 in 10.0 mi Calm Calm - N/A   Clear
1:55 AM 53.1 °F 50.9 °F 92% 30.02 in 10.0 mi Calm Calm - N/A   Clear
2:15 AM 56.1 °F 54.3 °F 94% 30.02 in 10.0 mi Calm Calm - N/A   Mostly Cloudy
2:34 AM 56.3 °F 54.7 °F 94% 30.02 in 10.0 mi Calm Calm - N/A   Mostly Cloudy
2:55 AM 54.7 °F 53.2 °F 95% 30.02 in 7.0 mi Calm Calm - N/A   Clear
3:15 AM 55.8 °F 54.7 °F 96% 30.01 in 10.0 mi WNW 3.5 mph - N/A   Mostly Cloudy
3:35 AM 55.0 °F 54.3 °F 97% 30.02 in 10.0 mi WNW 3.5 mph - N/A   Mostly Cloudy
3:55 AM 54.1 °F 52.7 °F 95% 30.01 in 10.0 mi WNW 3.5 mph - N/A   Scattered Clouds
4:15 AM 54.9 °F 54.0 °F 97% 30.01 in 10.0 mi WNW 4.6 mph - N/A   Scattered Clouds
4:35 AM 55.2 °F 53.2 °F 93% 30.01 in 10.0 mi Calm Calm - N/A   Scattered Clouds
4:55 AM 53.4 °F 52.0 °F 95% 30.01 in 10.0 mi Calm Calm - N/A   Scattered Clouds
5:14 AM 54.3 °F 52.9 °F 95% 30.01 in 10.0 mi Calm Calm - N/A   Mostly Cloudy
5:35 AM 54.5 °F 52.9 °F 94% 30.01 in 10.0 mi Calm Calm - N/A   Scattered Clouds
5:55 AM 54.1 °F 53.1 °F 96% 30.01 in 10.0 mi Calm Calm - N/A   Mostly Cloudy
6:15 AM 54.3 °F 53.1 °F 95% 30.01 in 10.0 mi Calm Calm - N/A   Mostly Cloudy
6:35 AM 54.7 °F 52.9 °F 94% 30.02 in 10.0 mi Calm Calm - N/A   Scattered Clouds
6:55 AM 55.2 °F 54.3 °F 97% 30.02 in 7.0 mi WNW 3.5 mph - N/A   Mostly Cloudy
7:15 AM 57.6 °F 55.9 °F 94% 30.02 in 10.0 mi Calm Calm - N/A   Overcast
7:35 AM 61.3 °F 58.6 °F 91% 30.03 in 10.0 mi Calm Calm - N/A   Overcast
7:55 AM 63.1 °F 59.2 °F 87% 30.03 in 10.0 mi SSW 4.6 mph - N/A   Overcast
8:15 AM 63.1 °F 59.9 °F 89% 30.04 in 10.0 mi SSW 4.6 mph - N/A   Overcast
8:34 AM 63.1 °F 60.8 °F 92% 30.04 in 10.0 mi SSW 5.8 mph - N/A   Overcast
8:55 AM 63.5 °F 61.0 °F 91% 30.05 in 10.0 mi SSW 6.9 mph - N/A   Overcast
9:15 AM 63.5 °F 60.8 °F 91% 30.05 in 10.0 mi SSW 6.9 mph - N/A   Overcast
9:34 AM 64.0 °F 61.0 °F 90% 30.05 in 10.0 mi South 6.9 mph - N/A   Overcast
9:55 AM 64.4 °F 61.2 °F 89% 30.05 in 10.0 mi South 5.8 mph - N/A   Overcast
10:15 AM 66.7 °F 62.2 °F 85% 30.05 in 10.0 mi South 9.2 mph - N/A   Mostly Cloudy
10:35 AM 65.7 °F 61.9 °F 88% 30.05 in 7.0 mi South 10.4 mph - N/A   Overcast
10:55 AM 64.4 °F 61.7 °F 91% 30.05 in 5.0 mi South 10.4 mph - N/A   Overcast
11:14 AM 64.4 °F 61.7 °F 91% 30.05 in 4.0 mi South 8.1 mph - N/A   Overcast
11:35 AM 64.6 °F 61.5 °F 90% 30.05 in 4.0 mi South 8.1 mph - N/A   Overcast
11:55 AM 66.6 °F 62.1 °F 85% 30.04 in 5.0 mi South 10.4 mph 17.3 mph N/A   Haze
12:15 PM 64.8 °F 61.3 °F 89% 30.04 in 4.0 mi South 10.4 mph - N/A   Overcast
12:35 PM 65.3 °F 61.7 °F 88% 30.04 in 4.0 mi South 9.2 mph - N/A   Overcast
12:55 PM 66.2 °F 61.9 °F 86% 30.04 in 5.0 mi South 8.1 mph - N/A   Overcast
1:15 PM 64.6 °F 61.2 °F 89% 30.04 in 4.0 mi SSW 8.1 mph 17.3 mph N/A   Overcast
1:35 PM 65.3 °F 61.7 °F 88% 30.03 in 4.0 mi SSW 10.4 mph 16.1 mph N/A   Overcast
1:54 PM 66.2 °F 61.7 °F 85% 30.03 in 4.0 mi South 11.5 mph 16.1 mph N/A   Overcast
2:15 PM 65.1 °F 61.2 °F 87% 30.04 in 2.5 mi South 11.5 mph 16.1 mph N/A   Overcast
2:34 PM 64.4 °F 61.0 °F 89% 30.04 in 1.0 mi South 12.7 mph 23.0 mph N/A   Overcast
2:55 PM 63.7 °F 60.8 °F 90% 30.04 in 1.0 mi South 13.8 mph 19.6 mph N/A   Overcast
3:15 PM 64.0 °F 61.0 °F 90% 30.04 in 1.0 mi South 12.7 mph 20.7 mph N/A   Overcast
3:34 PM 64.0 °F 60.8 °F 89% 30.03 in 1.5 mi South 10.4 mph - N/A   Overcast
3:55 PM 64.4 °F 61.2 °F 89% 30.03 in 1.8 mi South 8.1 mph - N/A   Overcast
4:14 PM 63.7 °F 61.0 °F 91% 30.03 in 1.0 mi South 10.4 mph - N/A   Overcast
4:35 PM 63.3 °F 60.8 °F 91% 30.03 in 1.0 mi South 8.1 mph - N/A   Overcast
4:55 PM 62.6 °F 60.4 °F 93% 30.03 in 0.8 mi South 10.4 mph - N/A   Overcast
5:14 PM 62.8 °F 60.4 °F 92% 30.04 in 1.0 mi SSW 8.1 mph - N/A   Overcast
5:35 PM 62.8 °F 60.6 °F 93% 30.04 in 1.5 mi South 6.9 mph - N/A   Overcast
5:55 PM 63.3 °F 60.8 °F 91% 30.03 in 2.0 mi SSW 6.9 mph - N/A   Overcast
6:15 PM 64.6 °F 61.3 °F 89% 30.03 in 4.0 mi SSW 9.2 mph 16.1 mph N/A   Overcast
6:35 PM 65.5 °F 61.3 °F 86% 30.02 in 7.0 mi South 8.1 mph - N/A   Scattered Clouds
6:54 PM 65.7 °F 61.3 °F 86% 30.01 in 10.0 mi SSW 6.9 mph - N/A   Clear
7:15 PM 65.3 °F 60.6 °F 85% 30.02 in 10.0 mi South 6.9 mph - N/A   Clear
7:35 PM 65.1 °F 60.4 °F 85% 30.02 in 10.0 mi SSW 6.9 mph - N/A   Clear
7:54 PM 64.9 °F 59.9 °F 84% 30.02 in 10.0 mi South 6.9 mph - N/A   Clear
8:15 PM 64.8 °F 59.7 °F 84% 30.01 in 10.0 mi South 5.8 mph - N/A   Clear
8:35 PM 63.5 °F 59.4 °F 86% 30.01 in 10.0 mi SSW 5.8 mph - N/A   Clear
8:54 PM 63.0 °F 59.2 °F 87% 30.01 in 10.0 mi SSW 4.6 mph - N/A   Clear
9:15 PM 62.6 °F 59.0 °F 88% 30.01 in 10.0 mi South 3.5 mph - N/A   Clear
9:35 PM 62.2 °F 59.0 °F 89% 30.01 in 10.0 mi SSW 6.9 mph - N/A   Clear
9:55 PM 61.9 °F 58.8 °F 90% 30.01 in 10.0 mi South 5.8 mph - N/A   Clear
10:15 PM 61.3 °F 58.8 °F 91% 30.01 in 10.0 mi South 4.6 mph - N/A   Clear
10:35 PM 61.0 °F 58.6 °F 92% 30.01 in 10.0 mi South 5.8 mph - N/A   Clear
10:55 PM 61.3 °F 58.6 °F 91% 30.02 in 10.0 mi South 8.1 mph - N/A   Clear
11:15 PM 61.2 °F 58.6 °F 91% 30.02 in 10.0 mi South 5.8 mph - N/A   Clear
11:34 PM 61.7 °F 58.6 °F 90% 30.01 in 10.0 mi South 9.2 mph - N/A   Clear
11:55 PM 61.7 °F 58.5 °F 89% 30.01 in 10.0 mi South 5.8 mph - N/A   Clear